This demonstration page uses our WeatherBlox Daily Observations layout. Learn more.

Left ArrowRight Arrow

36.19886, -115.1175

Hourly Observations for December 14, 2015

Temp ( °F °C ) Dew Point ( °F °C ) Humidity (%) Winds ( mph kmh ) Pressure ( in mb ) Visibility ( mi km ) Precip ( " mm )
12:00 am 00:00 Partly Cloudy 48 9 30 -1 50 50 NNW 25 41 29.68 1005 10 16 0.00 0.00
12:53 am 00:53 Mostly Cloudy 45 7.2 31 -0.6 58 58 NNW 23 37 29.75 1007 10 16 0.00 0.00
1:53 am 01:53 Cloudy with Light Rain 46 7.8 27 -2.8 47 47 W 17 28 29.72 1006 10 16 0.00 0.03
2:53 am 02:53 Mostly Cloudy 44 6.7 31 -0.6 60 60 WSW 12 19 29.70 1006 10 16 0.00 0.03
3:53 am 03:53 Clear 44 6.7 30 -1.1 58 58 WNW 7 11 29.70 1006 10 16 0.00 0.00
4:53 am 04:53 Mostly Cloudy 45 7.2 29 -1.7 54 54 NNW 16 26 29.70 1006 10 16 0.00 0.00
5:53 am 05:53 Cloudy 44 6.7 26 -3.3 49 49 NNW 21 33 29.72 1006 10 16 0.00 0.00
6:53 am 06:53 Sunny 44 6.7 26 -3.3 49 49 NNW 24 39 29.72 1006 10 16 0.00 0.00
7:53 am 07:53 Sunny 45 7.2 24 -4.4 44 44 N 18 30 29.75 1008 10 16 0.00 0.00
8:53 am 08:53 Sunny 46 7.8 23 -5 40 40 N 20 31 29.77 1008 10 16 0.00 0.00
9:53 am 09:53 Sunny 47 8.3 20 -6.7 34 34 NNW 24 39 29.78 1008 10 16 0.00 0.00
10:53 am 10:53 Sunny 49 9.4 21 -6.1 33 33 N 22 35 29.78 1009 10 16 0.00 0.00
11:53 am 11:53 Sunny 51 10.6 17 -8.3 26 26 NNW 26 43 29.77 1008 10 16 0.00 0.00
12:53 pm 12:53 Sunny 51 10.6 16 -8.9 25 25 NNW 30 48 29.78 1009 10 16 0.00 0.00
1:53 pm 13:53 Mostly Sunny 51 10.6 15 -9.4 24 24 NNW 22 35 29.80 1009 10 16 0.00 0.00
2:53 pm 14:53 Sunny 50 10 16 -8.9 26 26 NNW 24 39 29.81 1010 10 16 0.00 0.00
3:53 pm 15:53 Sunny 48 8.9 17 -8.3 29 29 NNW 16 26 29.83 1010 10 16 0.00 0.00
4:53 pm 16:53 Clear 46 7.8 20 -6.7 35 35 NNW 13 20 29.85 1011 10 16 0.00 0.00
5:53 pm 17:53 Clear 45 7.2 21 -6.1 39 39 NNW 17 28 29.86 1011 10 16 0.00 0.00
6:53 pm 18:53 Clear 44 6.7 22 -5.6 41 41 NNW 16 26 29.88 1012 10 16 0.00 0.00
7:53 pm 19:53 Clear 43 6.1 19 -7.2 38 38 NNW 18 30 29.90 1012 10 16 0.00 0.00
8:53 pm 20:53 Clear 43 6.1 18 -7.8 37 37 NNW 17 28 29.89 1012 10 16 0.00 0.00
9:53 pm 21:53 Clear 42 5.6 16 -8.9 35 35 NNW 13 20 29.91 1013 10 16 0.00 0.00
10:53 pm 22:53 Clear 41 5 16 -8.9 36 36 NNW 17 28 29.92 1013 10 16 0.00 0.00
11:53 pm 23:53 Clear 41 5 17 -8.3 38 38 NNW 23 37 29.92 1013 10 16 0.00 0.00

Powered by AerisWeather